www.pogodaiklimat.ru

Погода и климат >> Архив погоды >> Индия >> Pune


ПОГОДА в Pune

  • Прогноз погоды в Pune
  • Монитор погоды в Pune
  • Климат города

АРХИВ ПОГОДЫ в Pune

Время (UTC), дата Ветер
(напр.,м/с)
 
Видим.   Явления Облачность Т
(С)
Тd
(С)
f
(%)
Тe
(С)
Тes
(С)
Комфортность P
(гПа)
Po
(гПа)
Тmin
(С)
Tmax
(С)
R
(мм)
R24
(мм)
S
(см)
12 22.04 З 2 10 км ясно +34.8 +12.3 26 +35 +37 очень
жарко
1004.7 945.0 +35.6
15 22.04 З 2 4000 м ясно +28.2 +17.2 51 +32 +32 душно 1008.4 947.3
18 22.04 З 1 4000 м ясно +25.2 +19.2 69 +30 +30 душно 1009.8 948.1
21 22.04 З 1 4000 м ясно +23.0 +18.7 77 +29 +29 очень
душно
1009.0 946.9
00 23.04 З 1 4000 м ясно +21.0 +18.5 86 +27 +27 душно 1009.6 946.8
03 23.04 З 2 10 км ясно +25.3 +17.6 62 +29 +36 душно 1010.6 948.9 +20.6
06 23.04 штиль 0 10 км ясно +32.5 +15.3 35 +35 +62 опасность
солнечного
удара
1008.9 948.7
09 23.04 З 2 10 км ясно +35.0 +12.1 25 +35 +52 опасность
солнечного
удара
1006.2 946.5
12 23.04 З 3 10 км ясно +33.8 +12.1 27 +34 +36 очень
жарко
1005.3 945.4 +36.0
15 23.04 З 2 4000 м ясно +28.7 +16.3 47 +32 +32 душно 1008.2 947.1
18 23.04 З 2 4000 м ясно +25.2 +19.2 69 +30 +30 душно 1009.8 948.1
21 23.04 З 2 4000 м ясно +22.8 +18.7 78 +29 +29 очень
душно
1008.5 946.3
00 24.04 З 2 4000 м ясно +21.6 +18.3 82 +26 +26 душно 1009.1 946.7
03 24.04 З 1 10 км ясно +25.0 +17.6 64 +29 +36 душно 1011.3 949.2 +20.1
06 24.04 З 1 10 км ясно +32.8 +10.0 25 +32 +56 опасность
солнечного
удара
1008.9 948.7
09 24.04 З 2 10 км ясно +35.2 +11.0 23 +35 +53 опасность
солнечного
удара
1006.4 946.9
12 24.04 З 2 10 км ясно +33.8 +8.0 20 +32 +35 жарко 1006.4 946.5 +35.8
15 24.04 штиль 0 4000 м ясно +28.6 +10.7 33 +29 +29 жарко 1009.5 948.4
18 24.04 З 1 4000 м ясно +25.0 +19.0 69 +30 +30 душно 1011.3 949.2
21 24.04 З 1 4000 м ясно +22.4 +19.2 82 +28 +28 душно 1010.0 947.7
00 25.04 З 1 4000 м ясно +21.0 +16.6 76 +26 +26 душно 1010.4 947.6
03 25.04 штиль 0 10 км ясно +25.2 +15.3 54 +28 +36 жарко 1011.5 949.7 +19.2
06 25.04 СЗ 1 10 км ясно +34.0 +6.0 18 +32 +56 опасность
солнечного
удара
1009.1 949.0
09 25.04 З 3 10 км ясно +35.4 +7.5 18 +33 +49 жарко 1006.3 946.8
12 25.04 З 3 10 км ясно +33.8 +6.2 18 +32 +34 жарко 1005.8 945.9 +36.0
15 25.04 З 2 4000 м ясно +28.0 +7.8 28 +28 +28 жарко 1008.7 947.4
18 25.04 З 2 4000 м ясно +24.4 +14.4 54 +27 +27 жарко 1010.2 948.3
21 25.04 штиль 0 4000 м ясно +22.4 +10.1 46 +24 +24 комфорт 1009.8 947.5
00 26.04 З 2 4000 м ясно +22.0 +14.1 61 +25 +25 комфорт 1009.8 947.3
03 26.04 штиль 0 10 км ясно +24.8 +16.7 61 +28 +37 жарко 1011.7 949.6 +20.6
06 26.04 З 2 10 км ясно +32.8 +8.4 22 +31 +52 опасность
солнечного
удара
1009.2 948.9
09 26.04 В 2 10 км 3/3 800 м
[Sc]
+37.7 +4.6 13 +35 +48 очень
жарко
1005.1 946.0
12 26.04 З 2 10 км 4/4 800 м
[Cu Sc]
+35.8 +8.0 18 +34 +35 очень
жарко
1004.9 945.4 +38.1
15 26.04 З 1 4000 м 3/3 800 м
[Sc]
+30.0 +19.7 54 +36 +36 очень
душно
1008.6 947.7
18 26.04 штиль 0 4000 м ясно +26.6 +20.4 69 +33 +33 очень
душно
1010.4 948.9
21 26.04 З 1 4000 м ясно +24.2 +21.0 82 +30 +30 очень
душно
1009.6 947.7
00 27.04 З 1 4000 м 6/3 800 м
[Sc Ac trans]
+22.6 +19.9 85 +29 +29 очень
душно
1010.4 948.1
03 27.04 В 1 10 км 3/3 800 м
[Sc]
+25.8 +19.3 67 +31 +36 очень
душно
1011.1 949.3 +22.2
06 27.04 З 2 10 км 1/1 800 м
[Sc]
+33.7 +10.5 24 +33 +53 опасность
солнечного
удара
1009.1 949.0
09 27.04 СЗ 1 10 км 3/3 800 м
[Sc]
+37.8 +8.6 17 +36 +50 очень
жарко
1005.6 946.5
12 27.04 З 2 10 км 3/3 800 м
[Sc]
+36.6 +9.2 19 +35 +37 очень
жарко
1005.0 945.7 +38.7
15 27.04 З 2 4000 м 3/3 800 м
[Sc]
+30.8 +14.3 37 +33 +33 душно 1008.6 948.0
18 27.04 штиль 0 4000 м 3/3 800 м
[Sc]
+26.3 +17.1 57 +30 +30 душно 1010.7 949.1
21 27.04 З 3 4000 м 3/3 800 м
[Sc]
+25.1 +15.9 57 +28 +28 жарко 1008.4 946.8
00 28.04 штиль 0 4000 м 3/3 800 м
[Sc]
+21.6 +15.6 69 +25 +25 комфорт 1010.3 947.8
03 28.04 штиль 0 10 км 8/8 800 м
[Sc]
+27.0 +15.7 50 +30 +32 душно 1011.5 949.9 +20.2
06 28.04 В 1 10 км 8/4 800 м
[Sc Ac trans]
+33.2 +10.7 25 +33 +42 жарко 1010.2 950.0
09 28.04 штиль 0 10 км 6/4 800 м
[Sc Ac trans Ci fib]
+37.2 +8.6 18 +35 +47 очень
жарко
1006.0 946.9
12 28.04 З 2 10 км 3/1 800 м
[Sc Ci fib]
+36.4 +14.2 27 +34 +36 очень
жарко
1004.4 945.1 +38.3
15 28.04 З 1 4000 м ясно +26.4 +20.2 69 +33 +33 очень
душно
1008.0 946.7
18 28.04 З 1 4000 м ясно +27.2 +19.5 63 +33 +33 очень
душно
1009.2 947.9
21 28.04 штиль 0 4000 м 5/5 800 м
[Sc]
+25.0 +18.6 68 +30 +30 душно 1008.9 947.0
00 29.04 З 1 4000 м 5/5 800 м
[Sc]
+23.8 +16.9 65 +27 +27 жарко 1010.5 948.4
03 29.04 З 1 10 км 4/3 800 м
[Sc Ac cuf]
+26.8 +13.5 44 +29 +34 жарко 1012.1 950.5 +22.4
06 29.04 З 1 10 км 4/3 800 м
[Sc Ac trans]
+33.6 +5.2 17 +31 +47 жарко 1010.4 950.2
09 29.04 СЗ 1 10 км 4/3 800 м
[Sc Ac trans]
+38.0 +4.2 12 +35 +48 очень
жарко
1005.8 946.7

 

Местоположение метеостанции Pune (Maharashtra, Индия): широта 18.53 долгота 73.85 высота над уровнем моря 559 м.

В архиве по умолчанию представлена погода в Pune за последнюю неделю. Архивные данные за месяц целиком и за предыдущие месяцы, начиная с января 2011 года, Вы можете получить, выбрав интересующий диапазон дат из раскрывающегося списка и нажав кнопку "Ввод!".

Внимание! Время в таблицах - всемирное. Для получения местного времени необходимо прибавить поправку, которая в Pune равна 5.5 ч.

Смотрите также архив погоды в соседних городах и на ближайших метеорологических станциях:

Погода в Bhira (Maharashtra, Индия) (48 км)
Погода в Mahabaleshwar (Maharashtra, Индия) (69 км)
Погода в Alibag (Maharashtra, Индия) (104 км)
Погода в Harnai (Maharashtra, Индия) (112 км)
Погода в Satara (Maharashtra, Индия) (114 км)
Погода в Mumbai Colaba (Maharashtra, Индия) (116 км)
Погода в Ahmednagar (Maharashtra, Индия) (117 км)
Погода в Mumbai (Maharashtra, Индия) (124 км)
Погода в Jeur (Maharashtra, Индия) (141 км)
Погода в Nashik (Maharashtra, Индия) (164 км)

Пояснения к столбцам:

Ветер - указаны скорость ветра в м/с - средняя за 10 мин, порывы в срок и между сроками (в фигурных скобках) и направление, откуда дует ветер: С - северный, СВ - северо-восточный, В - восточный, ЮВ - юго-восточный, Ю - южный, ЮЗ - юго-западный, З - западный, СЗ - северо-западный.
Видимость - горизонтальная дальность видимости в метрах или километрах. При видимости от 1 до 10 км при отсутствии осадков обычно наблюдается дымка, при ухудшении видимости до 1 км и менее - туман. В сухую погоду видимость может ухудшаться дымом, пылью или мглою.
Явления - указаны атмосферные явления, наблюдавшиеся в срок или в последний час перед сроком; фигурными скобками обозначены явления, наблюдавшиеся между сроками (за 1-3 часа до срока); квадратными скобками обозначены град или гололедные отложения с указанием их диаметра в мм.
Облачность - указаны через наклонную черту общая и нижняя облачность в баллах и высота нижней границы облаков в метрах; квадратными скобками обозначены формы облаков: Ci - перистые, Cs - перисто-слоистые, Cc - перисто-кучевые, Ac - высококучевые, As - высокослоистые, Sc - слоисто-кучевые, Ns - слоисто-дождевые, Cu - кучевые, Cb - кучево-дождевые. Подробнее классификацию облаков см. в Атласе облаков (PDF).
T - Температура воздуха - температура, измеренная на высоте 2 м над землей.
Td - Температура точки росы - температура, при понижении до которой содержащийся в воздухе водяной пар достигнет насыщения.
f - Относительная влажность воздуха - влажноcть воздуха, измеренная на высоте 2 м над землей.
Te - Эффективная температура - температура, которую ощущает одетый по сезону человек в тени. Характеристика душности погоды. При расчете учитывается влияние влажности воздуха и скорости ветра на теплоощущения человека.
Tes - Эффективная температура на солнце - температура, которую ощущает человек, с поправкой на солнечный нагрев. Характеристика знойности погоды. Зависит от высоты солнца над горизонтом, облачности и скорости ветра. Ночью, в пасмурную погоду, а также при ветре 12 м/с и более поправка равна нулю.
P - Атмосферное давление - приведенное к уровню моря атмосферное давление.
Po - Атмосферное давление - измеренное на уровне метеостанции атмосферное давление.
Tmin - Минимальная температура - минимум температуры воздуха на высоте 2 м над землей.
Tmax - Максимальная температура - максимум температуры воздуха на высоте 2 м над землей.
R - Количество осадков - Количество выпавших осадков за период времени, мм. При наведении курсора мыши на число - период времени, за который выпало указанное количество осадков.
R24 - Количество осадков - Количество выпавших осадков за 24 часа, мм.
S - Снежный покров - Высота снежного покрова, см. При наведении курсора мыши на число - состояние снежного покрова и степень покрытия местности в баллах.